Presure
197 197 195 191 194 220 207 215 229 235 241 259 247 329 322 313 306 318 300 306 305 305 306 302 288 281 278 274 275 269 271 270 272 260 262 263 242 245 242 244 252 254 256 251
184 170 201 208 209 218 228 232 242 256 237 371 367 362 354 341 332 326 334 344 349 336 332 328 316 302 301 298 300 288 281 282 285 290 273 274 271 266 265 260 266 283 266 269
184 177 202 192 207 235 244 253 248 355 368 360 335 310 299 351 333 307 307 308 305 308 312 315 318 325 331 334 321 300 300 237 301 302 284 275 273 272 279 272 268 283 289 282
197 204 181 201 228 255 265 359 286 338 336 305 499 526 499 509 497 484 480 485 470 471 484 452 421 301 295 303 311 318 325 330 333 332 337 314 312 295 292 276 261 269 292 164
195 184 200 241 243 266 358 153 352 211 305 528 508 470 460 451 451 443 445 443 438 442 443 451 467 464 479 481 494 475 289 281 294 313 326 323 322 333 339 314 295 346 349 348
186 192 235 253 269 270 349 352 340 331 372 404 455 444 435 437 441 428 428 438 440 453 451 443 444 446 459 452 452 444 437 452 473 482 467 398 290 286 115 291 297 310 313 344
185 230 250 254 266 374 316 321 394 375 461 456 445 456 425 374 458 456 454 443 441 429 437 440 437 436 437 437 439 442 452 445 439 446 457 325 492 478 480 381 334 299 305 313
177 241 252 317 378 313 304 399 488 474 449 438 434 447 456 449 447 429 428 408 417 412 425 429 419 407 403 406 401 405 408 404 413 417 437 455 432 423 430 442 166 373 359 345
233 246 303 253 329 336 389 482 464 447 434 434 450 452 441 429 429 411 408 411 387 386 384 382 381 386 392 399 401 398 395 387 385 378 396 403 387 395 419 426 469 471 448 102
244 254 321 353 336 316 479 464 449 430 425 413 413 403 384 380 377 373 372 375 365 370 378 375 379 379 382 354 355 360 358 373 361 359 358 343 355 378 375 388 192 452 382 515
239 253 355 336 312 409 472 450 436 415 403 388 380 370 363 369 370 366 370 367 378 374 374 376 374 353 347 342 348 336 339 332 329 318 322 318 320 340 342 101 372 407 353 477
260 308 288 342 320 480 464 446 430 403 387 374 373 372 368 362 360 364 367 366 376 374 353 345 335 332 338 329 318 312 300 303 308 308 319 328 332 335 343 364 94 407 271 407
277 309 342 328 408 466 449 429 411 396 380 370 376 367 362 361 372 395 369 363 339 333 331 324 324 325 313 304 301 296 297 301 306 313 328 360 388 398 400 342 79 187 426 523
258 311 334 269 395 411 432 431 416 391 372 367 375 368 354 344 350 349 342 334 336 326 321 320 317 301 295 286 295 293 307 298 333 337 323 320 318 327 329 341 377 81 249 106
260 343 319 291 390 442 431 429 418 391 371 366 377 359 345 341 340 344 334 331 325 308 322 311 292 285 278 283 279 308 304 326 303 304 302 298 306 310 313 312 325 344 341 275
315 340 326 409 385 454 430 417 410 392 367 362 381 349 330 343 334 345 332 334 308 314 310 297 285 280 288 279 286 292 316 304 290 294 299 292 294 298 300 300 300 310 319 337
354 321 278 407 388 404 441 423 422 404 370 359 375 352 342 337 328 333 342 322 305 302 307 292 289 284 277 277 282 287 297 296 278 284 283 284 273 272 284 291 285 300 299 310
352 323 268 397 385 366 436 445 418 406 380 364 360 340 341 339 323 300 338 319 308 318 316 291 285 280 279 274 283 291 265 279 275 272 287 272 273 279 274 263 275 278 280 278
338 320 388 393 382 365 427 425 434 397 395 372 355 362 334 342 322 313 303 320 318 327 309 291 282 277 273 270 276 278 272 283 263 272 266 271 269 276 269 266 273 274 270 278
322 301 414 391 379 363 359 423 421 417 390 372 368 352 371 338 330 317 318 327 321 298 307 309 287 286 270 270 274 283 274 269 276 279 280 279 272 269 261 259 258 270 263 271
323 284 411 397 377 365 355 418 434 420 388 389 374 366 344 359 337 329 324 330 318 301 295 319 292 283 278 277 278 284 271 269 261 273 264 260 281 275 275 277 271 271 260 276
318 361 415 395 380 364 355 351 403 428 398 390 398 385 368 343 370 332 312 320 323 308 295 309 312 292 283 280 290 274 274 274 270 261 258 259 267 262 275 273 271 286 283 279
309 438 412 398 369 366 355 347 342 336 342 396 395 395 393 378 348 373 339 331 326 324 313 293 314 291 292 278 279 282 279 257 289 275 276 280 281 276 264 284 286 276 282 278
301 384 351 327 392 380 368 356 344 334 326 319 386 393 402 398 392 352 341 370 338 324 328 317 304 285 300 293 271 271 283 284 270 258 251 275 275 274 275 277 277 273 286 284
299 380 348 324 331 395 386 379 367 355 344 333 324 313 306 373 395 402 394 358 353 381 337 335 326 310 301 307 299 287 280 277 274 285 282 276 263 259 270 278 277 272 280 280
314 328 345 322 313 360 386 377 372 370 367 364 360 354 347 336 317 307 349 407 409 385 356 368 365 342 321 319 317 307 302 290 285 291 287 286 276 285 282 266 277 287 287 286
308 302 348 322 306 310 309 344 349 350 357 370 367 363 357 354 345 345 348 336 325 319 352 412 411 391 367 376 341 319 323 311 295 296 294 278 292 286 283 297 288 279 277 276
Wind_Speed
77 80 83 85 91 99 92 106 116 115 118 121 109 93 93 96 99 95 98 96 97 99 101 104 109 112 118 114 115 113 117 116 110 104 106 112 110 112 110 112 105 104 100 81
80 89 93 101 99 110 113 113 117 114 102 92 87 87 86 86 87 90 89 89 93 98 101 104 106 109 110 115 117 122 121 122 115 109 109 114 116 116 119 110 105 105 105 87
87 86 102 94 110 117 117 117 107 97 93 90 88 88 92 90 91 93 94 95 96 97 98 100 100 100 101 104 109 110 117 87 117 112 104 110 115 112 119 118 110 108 104 90
96 107 90 108 114 119 121 109 105 100 94 93 49 36 40 29 28 32 32 32 37 41 42 54 65 103 101 103 104 106 106 105 106 106 105 110 112 111 114 112 100 108 101 58
102 98 108 121 121 120 111 72 101 81 97 35 34 41 39 40 38 41 38 38 38 38 37 37 34 37 35 39 32 47 101 98 99 99 100 105 105 100 99 103 104 97 93 95
100 103 121 121 124 120 106 102 94 93 81 56 37 41 41 40 39 34 36 34 34 27 26 27 25 24 22 25 31 38 47 44 37 47 52 64 93 86 25 93 94 96 92 82
96 126 122 124 123 105 106 100 83 81 43 36 36 35 35 30 32 25 17 17 18 19 19 15 15 13 12 13 15 22 22 26 31 29 21 36 30 31 42 100 101 100 88 71
81 126 126 123 109 107 101 84 39 37 36 37 30 29 26 22 16 13 8 14 14 16 16 6 1 5 7 8 8 10 12 15 19 23 18 10 15 32 42 50 40 99 100 93
125 127 123 119 108 105 87 40 38 36 32 26 21 16 17 15 11 13 12 10 8 6 2 1 3 4 2 2 5 5 4 1 2 6 5 11 29 33 28 40 45 36 69 23
125 124 127 113 107 98 42 38 36 31 27 29 22 22 22 20 17 13 11 9 4 2 2 1 1 5 5 11 10 9 9 9 9 8 5 9 4 15 19 24 22 28 36 42
122 122 117 111 103 78 39 38 31 29 30 28 27 26 25 22 18 14 10 6 4 3 5 8 12 16 16 15 14 18 19 15 14 8 6 16 16 12 20 29 16 23 24 32
121 127 111 109 96 41 38 33 26 26 27 26 24 21 22 21 18 14 11 7 6 11 21 23 23 22 22 25 25 20 13 11 9 6 5 7 9 10 16 16 31 19 22 20
125 129 112 107 81 44 40 34 29 25 24 24 21 20 18 19 19 15 12 18 21 20 20 22 23 26 29 24 20 15 8 5 2 6 5 12 10 8 9 11 17 4 9 11
121 118 110 104 79 60 42 30 24 22 22 22 18 14 15 16 17 18 19 17 18 22 22 22 30 34 29 18 20 11 8 5 13 36 43 40 31 46 47 40 26 20 4 35
122 111 108 103 75 42 40 29 20 18 20 20 13 12 12 11 12 11 12 16 22 20 24 31 28 24 17 17 10 17 14 31 40 44 39 35 40 39 40 39 42 35 33 21
127 109 107 71 69 31 34 32 24 17 18 17 6 10 14 8 8 6 7 17 20 19 30 31 24 21 24 17 17 18 21 37 29 39 43 36 37 38 34 34 34 32 28 25
110 108 100 68 66 51 29 27 21 14 14 16 5 7 7 5 6 5 3 14 18 19 30 32 27 23 20 19 21 21 28 30 24 30 26 41 30 28 30 34 27 33 24 18
108 107 99 66 65 62 37 27 19 16 9 11 9 10 5 1 5 9 1 12 16 15 28 30 27 24 22 18 24 28 16 26 26 26 38 33 31 37 33 31 33 32 33 39
106 103 70 64 62 60 38 36 28 18 12 6 9 5 4 2 3 2 3 8 12 16 31 31 28 23 21 16 18 23 25 27 20 30 29 33 33 34 33 32 38 43 44 37
104 100 59 61 57 57 55 33 27 21 15 12 5 8 15 6 6 4 2 9 15 17 22 33 27 31 15 16 18 27 25 24 31 32 33 34 33 35 35 38 40 36 39 39
102 97 58 55 55 54 52 34 27 24 19 15 10 5 8 10 10 10 10 11 19 16 14 21 31 32 27 24 25 30 25 24 20 29 24 21 34 35 34 35 36 37 45 41
100 75 54 53 52 52 49 47 32 23 19 17 13 9 6 7 11 13 9 12 17 21 14 20 34 31 33 30 34 27 28 29 30 26 24 25 28 27 32 36 37 32 34 37
97 53 54 49 53 48 47 45 43 41 37 22 18 13 10 6 8 12 17 19 20 22 25 16 30 31 36 30 32 35 34 17 32 33 32 33 35 38 35 35 35 37 37 40
95 69 71 69 43 42 41 40 39 39 38 37 25 21 15 11 9 8 10 19 22 23 29 30 25 18 40 40 24 27 36 40 30 24 20 33 35 36 37 38 40 40 40 41
93 66 67 67 62 39 38 36 35 34 32 32 32 31 30 21 14 10 10 12 14 23 27 32 36 32 29 46 43 42 36 35 35 44 43 41 33 28 35 44 43 41 43 43
89 80 63 64 62 47 38 37 36 35 33 32 32 31 29 27 26 25 19 12 12 14 19 23 30 39 39 43 52 50 52 42 42 52 45 49 42 47 47 35 39 48 50 50
89 86 58 60 60 57 55 44 42 41 40 37 35 33 32 31 30 28 25 22 20 18 14 16 20 24 31 37 49 49 59 62 48 50 50 41 53 48 47 59 56 51 48 45
Wind_Direction
323 320 314 306 308 318 315 319 312 309 307 301 303 296 292 289 286 282 280 275 273 270 268 266 266 263 264 265 263 264 264 265 262 261 260 259 261 258 257 256 257 256 254 250
306 306 321 322 319 322 317 312 309 306 308 305 302 298 293 289 286 282 279 274 271 269 267 266 264 263 262 264 262 262 264 265 265 261 261 260 258 259 259 261 259 256 256 252
309 313 320 313 321 318 312 313 315 313 310 307 301 295 291 287 285 281 279 276 274 271 269 268 266 264 263 262 262 264 263 265 263 262 260 259 259 260 257 259 262 259 255 251
323 325 317 320 319 316 315 322 312 314 312 306 312 316 309 311 305 294 289 281 275 269 264 263 263 266 265 265 264 263 262 261 260 260 259 258 256 256 256 257 257 260 259 249
321 318 323 322 320 318 325 307 320 318 312 321 317 313 309 306 302 299 298 294 287 283 280 274 267 264 266 264 264 264 264 264 263 261 260 258 255 254 253 256 258 255 253 252
321 326 325 322 321 326 326 324 319 317 317 314 322 314 311 308 305 302 299 293 287 293 287 280 282 279 271 258 254 253 255 260 264 266 263 262 257 258 282 255 255 255 249 246
324 328 325 322 326 330 326 324 325 323 326 324 316 312 314 304 313 310 306 303 311 302 302 291 281 283 274 263 250 255 261 266 266 273 261 248 281 269 260 237 241 250 249 240
324 329 326 333 334 330 327 331 331 329 332 326 328 318 318 321 322 315 332 309 319 327 327 333 309 251 259 257 235 229 230 236 256 275 278 272 221 234 243 247 230 232 240 244
331 330 335 329 335 333 334 338 337 339 335 333 335 346 349 358 357 330 351 355 30 40 41 123 211 236 189 200 192 216 250 14 331 253 260 221 224 240 265 258 264 255 233 250
332 329 339 338 336 334 339 342 344 340 334 339 343 350 352 355 358 1 10 24 354 324 172 145 109 122 114 92 107 109 123 85 114 99 112 213 221 261 277 285 267 269 252 241
332 332 341 339 338 340 344 345 347 339 341 347 349 349 348 350 355 352 357 30 25 126 113 108 101 96 103 112 101 118 110 105 101 147 187 224 231 282 253 243 297 280 251 232
334 342 336 341 339 350 349 350 348 342 344 348 348 345 355 360 359 1 18 36 89 102 101 100 111 106 99 114 112 109 126 132 159 193 283 314 313 294 288 301 232 288 233 227
338 342 342 342 344 350 351 352 349 346 348 347 352 356 10 22 38 31 61 94 105 110 112 108 105 110 109 108 111 112 124 160 194 24 355 317 339 349 11 13 248 221 71 221
338 344 344 341 344 347 350 351 351 351 348 348 357 10 24 27 53 85 108 112 111 113 113 109 119 116 114 120 112 124 138 110 60 101 92 96 97 83 77 65 75 250 213 241
341 345 345 344 346 348 347 352 354 354 345 349 6 16 21 35 54 103 115 110 124 120 122 129 136 137 141 132 132 99 106 115 120 112 111 106 91 85 80 84 71 82 101 141
346 346 346 348 349 354 345 347 352 357 344 348 20 359 4 48 43 118 118 130 125 133 142 145 150 149 138 144 126 98 87 129 130 129 117 114 101 93 93 99 99 95 96 126
347 346 346 349 351 353 355 346 353 357 343 344 359 350 16 38 34 32 178 133 141 145 161 156 156 159 159 155 125 113 134 131 128 129 129 125 146 152 129 111 132 111 112 120
347 347 346 350 352 354 353 2 356 1 353 333 343 344 355 133 21 10 344 147 152 164 170 166 169 174 170 174 141 126 155 136 142 140 136 151 156 151 155 179 151 149 165 173
347 348 350 352 354 355 351 354 1 357 358 331 334 293 332 232 333 45 60 178 170 177 175 178 183 189 183 184 163 153 150 155 170 159 164 162 167 162 171 179 170 169 181 189
348 349 353 354 355 356 358 355 352 359 360 5 312 327 240 252 246 269 198 190 185 179 186 191 191 187 204 206 202 167 170 175 163 171 176 177 176 184 189 194 195 194 205 205
349 349 354 355 357 358 360 353 354 358 1 354 355 300 317 267 237 230 228 215 193 201 204 204 198 197 207 215 203 186 189 194 204 182 199 211 183 189 192 192 199 205 212 214
350 351 355 357 359 360 1 4 2 1 7 0 347 343 288 297 253 242 286 234 214 212 223 216 205 206 208 217 208 218 213 202 205 211 220 224 219 225 211 215 213 208 209 217
350 356 357 358 357 359 0 3 6 9 12 9 6 356 336 288 280 255 233 232 226 226 225 240 210 217 210 222 225 217 222 235 216 217 220 219 223 222 232 224 219 221 224 223
349 354 355 357 360 1 0 2 5 6 9 12 9 7 352 342 302 275 266 242 239 248 233 232 240 251 221 221 240 240 229 226 236 235 239 235 229 231 232 231 228 235 232 230
349 354 356 357 358 7 7 7 6 7 8 11 12 14 15 12 3 335 295 273 264 252 249 245 241 245 245 226 227 235 239 243 249 239 239 243 242 248 245 241 243 243 242 242
349 352 355 357 357 8 16 17 18 20 21 18 18 18 17 17 15 15 13 340 303 280 267 260 255 249 249 244 238 242 240 251 249 240 244 245 253 247 246 252 252 246 245 246
348 350 352 355 356 358 1 18 25 27 29 29 28 26 25 22 20 17 14 10 4 358 346 306 289 273 263 259 251 252 244 247 260 258 261 263 256 257 258 248 250 258 260 258